Tracking 28790 objects as of 19-Apr-2024
HD Live streaming from Space Station
objects crossing your sky now

STARLINK-1720

Track STARLINK-1720 now!
10-day predictions
STARLINK-1720 is classified as:


NORAD ID: 46675
Int'l Code: 2020-073F
Perigee: 553.4 km
Apogee: 555.4 km
Inclination: 53.1 °
Period: 95.6 minutes
Semi major axis: 6925 km
RCS: Unknown
Launch date: October 18, 2020
Source: United States (US)
Launch site: AIR FORCE EASTERN TEST RANGE (AFETR)
Your satellite tracking list
Your tracking list is empty




NASA's NSSDC Master Catalog

Two Line Element Set (TLE):
1 46675U 20073F   24110.16939255  .00000995  00000-0  85721-4 0  9998
2 46675  53.0541  96.9868 0001424  85.1472 274.9680 15.06383414193680
Source of the keplerian elements: AFSPC